Showing default

ZHUHAI-1 OVS-02, 43440

Orbit data source: Space-Track

ZHUHAI-1 OVS-02, 43440 is a payload satellite owned by Zhuhai Orbita (CN) in SSO that was launched on Thu, 26 Apr 2018 UTC via a CHANG ZHENG 11 launch vehicle from the Jiuquan Satellite Launch Center, China (JSC). Payload-class satellites include a variety of spacecraft equipped with specific instruments for various scientific and technological missions. These include communications satellites like Starlink; space stations such as the ISS; scientific satellites like the Hubble; Earth observation satellites from companies like Planet Labs, Umbra, and HawkEye 360; GPS; miniature CubeSats for education and research; and military/defense satellites.

Loading next visibility...
Identifier
43440, 2018-040B
Orbit
SSO
Country
Flag of CNCN / PRC
Related business
Manufacturer
Harbin
Mission
Operational Commercial Imaging
Bus & Motor
OVS-1, Unknown motor
Mass
95 kg wet, 95 kg dry
Launch date (UTC)
2018-04-26 (8 years ago)
Launch vehicle
CHANG ZHENG 11
Launch site
Jiuquan Satellite Launch Center, China (JSC)
Object type
Payload
Rocket body
Debris
Shape & HBR
Box, 0.5 m
Radar Cross Section
0.375 m², Medium (>0.1 m² and < 1m²)

Expand to show TLE details & history
Last TLE update: 9 hours ago

TLE from 9 hours ago
0 ZHUHAI-1 OVS-02
1 43440U 18040B   25309.97414854  .00008770  00000-0  39178-3 0  9992
2 43440  97.0588 335.6987 0003358   0.3644 359.7595 15.21553201418732
Epoch: 2025-11-05T23:22Z
TLE epoch observation values (Epoch: 2025-11-05T23:22:46.433Z)
Latitude
-0.00002°
Longitude
-60.43389°
Altitude
501.947 km
Speed
7.615 km/s
True Right ascension
22h 22m 47s
True Declination
0° 00' 00"
Sunlit
Object was in full shadow at epoch
Visualization orbit readout
Latitude
Unknown
Longitude
Unknown
Altitude
Unknown
Speed
Unknown
Apparent Right ascension
Unknown
Apparent Declination
Unknown
Sunlit
N/A
Visualization observer readout
Local Sidereal Time
04:49:54
Azimuth
Unknown
Elevation
Unknown
Doppler factor
Unknown
Orbital elements
Apogee altitude
500.413 km
Perigee altitude
495.795 km
Semi-major axis
6,876.241 km
Eccentricity
0.00034
Inclination
97.0588°
RAAN
335.6987°
Arg. of periapsis
0.3644°
True anomaly
359.75934°
Mean anomaly
359.7595°
Eccentric anomaly
359.75942°
Mean motion
3.80642 °/min
Orbital period
94.58 mins
BSTAR
0.00039178
Loading maneuver chart data...
Computing Atmospheric mass density...
Loading historical data...
Loading historical data...
Loading historical data...
Loading historical data...
Loading historical data...
Loading historical data...
Loading historical data...

Documentation

Showing up to 5 results
|